EUR-Lex Search results

Back to EUR-Lex homepage

This document is an excerpt from the EUR-Lex website

Search Results

legislation in force

Domain: Official Journal, Limit to legislation in force: True, Type of legislative procedure: Co-decision procedure (COD), Limit to basic acts: True, Document sector: 2, 3, 4, Directory code, 1st level: Regional policy and coordination of structural instruments

Directive 2009/42/EC of the European Parliament and of the Council of 6 May 2009 on statistical returns in respect of carriage of goods and passengers by sea (Recast) (Text with EEA relevance)

OJ L 141, 6.6.2009, p. 29–47 (BG, ES, CS, DA, DE, ET, EL, EN, FR, IT, LV, LT, HU, MT, NL, PL, PT, RO, SK, SL, FI, SV)
This document has been published in a special edition(s) (HR)

CELEX number:
32009L0042
All consolidated versions:
Linked documents:
  • Amendment proposed by 12008E338
  • Amended by 32010D0216 Replacement annex 8 Adopted on: 16/04/2010
  • Amended by 32010D0216 Replacement annex 4 Adopted on: 16/04/2010
  • Amended by 32010D0216 Replacement annex 5 Adopted on: 16/04/2010
  • Amended by 32010R1090 Replacement article 5 L3 Adopted on: 29/12/2010
  • Amended by 32010R1090 Replacement article 4 1.2 Adopted on: 29/12/2010
  • Amended by 32010R1090 Addition article 10 Adopted on: 29/12/2010
  • Amended by 32010R1090 Replacement article 3 4 Adopted on: 29/12/2010
  • Amended by 32010R1090 abolition article 10 3 Adopted on: 29/12/2010
  • Amended by 32010R1090 abolition annex VIII 2 Adopted on: 29/12/2010
  • Amended by 32012D0186 Replacement annex IV Adopted on: 01/01/2012
  • Amended by 32012D0186 Replacement annex VIII Adopted on: 01/01/2012
  • Amended by 32012D0186 Replacement annex I Adopted on: 01/01/2012
  • Amended by 32012D0186 Replacement annex II Adopted on: 01/01/2012
  • Completed by 32018D1007 Adopted on: 06/08/2018

Regulation (EC) No 1445/2007 of the European Parliament and of the Council of 11 December 2007 establishing common rules for the provision of basic information on Purchasing Power Parities and for their calculation and dissemination (Text with EEA relevance )

OJ L 336, 20.12.2007, p. 1–24 (BG, ES, CS, DA, DE, ET, EL, EN, FR, GA, IT, LV, LT, HU, MT, NL, PL, PT, RO, SK, SL, FI, SV)
This document has been published in a special edition(s) (HR)

CELEX number:
32007R1445
All consolidated versions:
Linked documents:
  • Amended by 32015R1163 Replacement annex II Adopted on: 05/08/2015

Regulation (EC) No 1082/2006 of the European Parliament and of the Council of 5 July 2006 on a European grouping of territorial cooperation (EGTC)

OJ L 210, 31.7.2006, p. 19–24 (ES, CS, DA, DE, ET, EL, EN, FR, IT, LV, LT, HU, MT, NL, PL, PT, SK, SL, FI, SV)
This document has been published in a special edition(s) (BG, RO, HR)

CELEX number:
32006R1082
All consolidated versions:
Linked documents:
  • Amended by 32013R1302 Addition article 2.1 BI Adopted on: 22/06/2014
  • Amended by 32013R1302 Replacement article 8.2 Adopted on: 22/06/2014
  • Amended by 32013R1302 Replacement article 7.3 Adopted on: 22/06/2014
  • Amended by 32013R1302 Addition article 4.3 BI Adopted on: 22/06/2014
  • Amended by 32013R1302 Replacement article 7.2 Adopted on: 22/06/2014
  • Amended by 32013R1302 Replacement article 9 Adopted on: 22/06/2014
  • Amended by 32013R1302 Replacement article 4.5 Adopted on: 22/06/2014
  • Amended by 32013R1302 Replacement article 3.1 L1 Adopted on: 22/06/2014
  • Amended by 32013R1302 Addition article 1.5 Adopted on: 22/06/2014
  • Amended by 32013R1302 Amendment article 12.1 Adopted on: 22/06/2014
  • Amended by 32013R1302 Replacement article 15.2 L1 Adopted on: 22/06/2014
  • Amended by 32013R1302 Addition article 4.6 BI Adopted on: 22/06/2014
  • Amended by 32013R1302 Replacement article 4.3 Adopted on: 22/06/2014
  • Amended by 32013R1302 Amendment article 7.4 Adopted on: 22/06/2014
  • Amended by 32013R1302 Replacement article 6.4 Adopted on: 22/06/2014
  • Amended by 32013R1302 Replacement article 4.6 Adopted on: 22/06/2014
  • Amended by 32013R1302 Replacement article 1.1 Adopted on: 22/06/2014
  • Amended by 32013R1302 Replacement article 2.1 Adopted on: 22/06/2014
  • Amended by 32013R1302 Replacement article 16.1 Adopted on: 22/06/2014
  • Amended by 32013R1302 Addition article 3 BI Adopted on: 22/06/2014
  • Amended by 32013R1302 Addition article 17 BI Adopted on: 22/06/2014
  • Amended by 32013R1302 Replacement article 11.2 Adopted on: 22/06/2014
  • Amended by 32013R1302 Replacement article 1.2 Adopted on: 22/06/2014
  • Amended by 32013R1302 Replacement article 12.2 Adopted on: 22/06/2014
  • Amended by 32013R1302 Addition article 4 BI Adopted on: 22/06/2014
  • Amended by 32013R1302 Replacement article 17 Adopted on: 22/06/2014
  • Amended by 32013R1302 Replacement article 3.2 Adopted on: 22/06/2014
  • Amended by 32013R1302 Addition article 16.1 BI Adopted on: 22/06/2014
  • Amended by 32013R1302 Replacement article 5 Adopted on: 22/06/2014

Regulation (EC) No 1059/2003 of the European Parliament and of the Council of 26 May 2003 on the establishment of a common classification of territorial units for statistics (NUTS)

OJ L 154, 21.6.2003, p. 1–41 (ES, DA, DE, EL, EN, FR, IT, NL, PT, FI, SV)
This document has been published in a special edition(s) (CS, ET, LV, LT, HU, MT, PL, SK, SL, BG, RO, HR)

CELEX number:
32003R1059
All consolidated versions:
Linked documents:
  • Amended by 32005R1888 Replacement annex 3 Adopted on: 26/11/2005
  • Amended by 32005R1888 Replacement annex 2 Adopted on: 26/11/2005
  • Amended by 32005R1888 Addition annex 1 Adopted on: 26/11/2005
  • Amended by 32007R0105 Replacement annex 1 Adopted on: 02/03/2007
  • Amended by 32007R0105 Replacement annex 2 Adopted on: 02/03/2007
  • Amended by 32007R0105 Replacement annex 3 Adopted on: 02/03/2007
  • Amended by 32008R0176 Completion annex 3 Adopted on: 06/03/2008
  • Amended by 32008R0176 Completion annex 1 Adopted on: 06/03/2008
  • Amended by 32008R0176 Completion annex 2 Adopted on: 06/03/2008
  • Amended by 32008R1137 Replacement article 7 Adopted on: 11/12/2008
  • Amended by 32008R1137 Replacement article 3.4 Adopted on: 11/12/2008
  • Amended by 32008R1137 Amendment article 4.1 Adopted on: 11/12/2008
  • Amended by 32008R1137 Amendment article 5.4 Adopted on: 11/12/2008
  • Amended by 32008R1137 Replacement article 5.5 Adopted on: 11/12/2008
  • Amended by 32008R1137 Amendment article 3.5 Adopted on: 11/12/2008
  • Amended by 32011R0031 Replacement annex Adopted on: 07/02/2011
  • Amended by 32013R0517 Completion annex I Adopted on: 01/07/2013
  • Amended by 32013R0517 Completion annex II Adopted on: 01/07/2013
  • Amended by 32013R0517 Completion annex III Adopted on: 01/07/2013
  • Amended by 32013R1319 Replacement annex III Adopted on: 01/01/2015
  • Amended by 32013R1319 Replacement annex II Adopted on: 01/01/2015
  • Amended by 32013R1319 Replacement annex I Adopted on: 01/01/2015
  • Amended by 32014R0868 Replacement annex III Adopted on: 01/01/2016
  • Amended by 32014R0868 Replacement annex II Adopted on: 01/01/2016
  • Amended by 32014R0868 Replacement annex I Adopted on: 01/01/2016
  • Amended by 32016R2066 Replacement annex I Adopted on: 19/12/2016
  • Amended by 32016R2066 Replacement annex II Adopted on: 19/12/2016
  • Amended by 32016R2066 Replacement annex III Adopted on: 19/12/2016
  • Amended by 32017R2391 Addition article 4a Adopted on: 18/01/2018
  • Amended by 32017R2391 Replacement article 7 Adopted on: 18/01/2018
  • Amended by 32017R2391 Replacement article 3 paragraph 4 Adopted on: 18/01/2018
  • Amended by 32017R2391 Replacement article 4 Adopted on: 18/01/2018
  • Amended by 32017R2391 Replacement article 3 paragraph 5 L 3 Adopted on: 18/01/2018
  • Amended by 32017R2391 Replacement article 5 paragraph 4 Adopted on: 18/01/2018
  • Amended by 32017R2391 Addition article 4b Adopted on: 18/01/2018
  • Amended by 32017R2391 Addition article 7a Adopted on: 18/01/2018
  • Amended by 32017R2391 Repeal article 8 Adopted on: 18/01/2018
  • Amended by 32017R2391 Replacement article 5 paragraph 5 Adopted on: 18/01/2018
  • Amended by 32017R2391 Replacement annex III Text Adopted on: 18/01/2018
  • Amended by 32017R2391 Repeal article 2 paragraph 5 Adopted on: 18/01/2018
  • Amended by 32017R2391 Replacement article 1 Adopted on: 18/01/2018
  • Amended by 32019R1755 Replacement annex III Adopted on: 01/01/2021
  • Amended by 32019R1755 Replacement annex I Adopted on: 01/01/2021
  • Amended by 32019R1755 Replacement annex II Adopted on: 01/01/2021